Location: Newark
(7.0858°N, 171.3717°E)
Time: 05:06:22
(UTC+00:00)

Courier 1B Rocket - Pass Details

Date: 29 November 2020
Orbit: 920 x 1202 km, 28.2° (Epoch: 20 January)

Event Time Altitude Azimuth Distance (km) Brightness Sun altitude
Rises 21:54:27 0° 314° (NW) 4,027 7.8 43.6°
Reaches altitude 10° 21:58:12 10° 330° (NNW) 3,025 7.3 44.3°
Maximum altitude 22:03:30 21° 15° (NNE) 2,271 7.0 45.3°
Drops below altitude 10° 22:08:34 10° 62° (ENE) 2,880 7.8 46.2°
Sets 22:12:01 0° 78° (ENE) 3,779 8.4 46.9°
